CAPE
0 0 0 0 0 0 0 0 0 0 0 0 0 0 0 0 0 0 0 0 0 0 0 0 0 0 0 0 1800 2166 2547 2625 2630 2803 2584 2465 2156 2563 2514 2530 2361 2254 2138 1955 1905 1805 1644 1420 1284 1226 1199 1160 1248 1491 1643 1682 1631 1652 1726 1706 1654 1595 1507 1525 1531 1232 1287 1270 1360 1323 1277 1269 1270 1292 1570 1593 1620 1635 1512 1362 1382 1550 1594 1540 1497 1499
0 0 0 0 0 0 0 0 0 0 0 0 0 0 0 0 0 0 0 0 0 0 0 0 0 0 0 182 1483 1984 2400 2409 2510 2744 2535 2617 2401 2547 2597 2524 2293 2254 2064 1954 1846 1666 1500 1223 1129 1215 1249 1236 1252 1349 1590 1678 1682 1712 1718 1432 1318 1304 1388 1418 1264 1326 1412 1462 1511 1449 1402 1362 1380 1443 1487 1506 1404 1365 1296 1270 1266 1277 1317 1356 1402 1453
0 0 0 0 0 0 0 0 0 0 0 0 0 0 0 0 0 0 0 0 0 0 0 0 0 0 0 0 1175 1878 2265 2361 2447 2634 2610 2570 2279 2673 2684 2409 2243 2217 2015 1846 1635 1303 1310 1307 1189 1240 1341 1379 1436 1443 1480 1534 1564 1588 1486 1320 1354 1319 1311 1275 1359 1530 1642 1550 1526 1477 1333 1427 1594 1652 1705 1672 1558 1483 1510 1500 1546 1540 1520 1515 1501 1486
0 0 0 0 0 0 0 0 0 0 0 0 0 0 0 0 0 0 0 0 0 0 0 0 0 0 0 0 337 1749 2091 2272 2354 2487 2518 2502 2551 2729 2522 2210 2248 2116 2066 1840 1563 1340 1468 1486 1364 1262 1259 1340 1448 1516 1506 1502 1542 1581 1433 1246 1172 1184 1188 1475 1620 1696 1829 1846 1761 1652 1645 1750 1703 1581 1522 1489 1491 1478 1462 1427 1426 1505 1542 1553 1567 1563
0 0 0 0 0 0 0 0 0 0 0 0 0 0 0 0 0 0 0 0 0 0 0 0 0 0 0 0 107 1336 1962 2123 2228 2331 2275 2138 2331 2255 2120 2107 2105 1978 2034 2023 1848 1716 1638 1490 1375 1297 1206 1263 1330 1358 1390 1423 1439 1450 1419 1227 1180 1267 1427 1718 1875 1852 1818 1743 1712 1728 1712 1597 1510 1274 1103 1044 1034 1169 1230 1290 1302 1392 1448 1541 1600 1599
0 0 0 0 0 0 0 0 0 0 0 0 0 0 0 0 0 0 0 0 0 0 0 0 0 0 0 0 256 1074 1573 1888 2129 2256 1942 1407 2023 1769 1914 1994 1858 1770 1858 1777 1635 1678 1766 1725 1602 1487 1322 1171 1190 1217 1269 1307 1334 1376 1380 1415 1492 1574 1663 1739 1812 1777 1712 1652 1444 1372 1322 1222 1014 980 1039 1046 1065 1091 1160 1229 1224 1239 1425 1561 1604 1562
0 0 0 0 0 0 0 0 0 0 0 0 0 0 0 0 0 0 0 0 0 0 0 0 0 0 0 0 222 953 1374 1690 1959 2135 1910 1873 2040 1961 1961 1972 1781 1584 1735 1740 1755 1794 1858 1752 1611 1457 1382 1288 1236 1235 1290 1382 1447 1572 1655 1678 1744 1812 1745 1626 1572 1472 1370 1307 1220 1134 966 1026 1117 1172 1230 1163 1115 1074 1204 1263 1290 1276 1303 1401 1442 1465
0 0 0 0 0 0 0 0 0 0 0 0 0 0 0 0 0 0 0 0 0 0 0 0 0 0 0 127 414 918 1265 1501 1718 1794 1789 2061 1990 2094 2030 1986 1849 1789 1741 1774 1837 1888 1913 1771 1658 1556 1474 1428 1375 1334 1354 1517 1706 1749 1664 1624 1606 1476 1317 1256 1225 1193 1152 1117 1126 1090 1114 1154 1202 1180 1130 1169 1148 1067 1105 1171 1288 1385 1413 1416 1450 1419
0 0 0 0 0 0 0 0 0 0 0 0 0 0 0 0 0 0 0 0 0 0 0 0 0 0 0 289 945 1027 1208 1338 1647 1801 1861 2077 2126 2114 2064 2020 2033 2026 1931 1885 1936 1974 1841 1743 1634 1512 1493 1446 1416 1451 1569 1668 1660 1544 1464 1385 1319 1245 1188 1112 1046 1050 1162 1114 1024 1043 1106 1113 1093 1036 1040 1027 1008 967 950 958 995 989 1086 1284 1358 1335
0 0 0 0 0 0 0 0 0 0 0 0 0 0 0 0 0 0 0 0 0 0 0 0 0 0 0 647 1308 1308 1321 1316 1664 1919 2031 2092 2126 1998 1803 1821 2163 2046 1918 1912 1898 1851 1796 1690 1626 1576 1512 1499 1522 1598 1572 1494 1420 1340 1292 1192 1115 1056 1055 1033 1012 989 1031 978 944 901 892 928 956 998 977 922 931 920 926 885 860 857 877 904 1017 1145
0 0 0 0 0 0 0 0 0 0 0 0 0 0 0 0 0 0 0 0 0 0 0 0 0 0 0 452 1284 993 1173 1352 1746 1907 1764 1881 1836 1833 1916 2040 2278 2068 1965 1910 1851 1803 1716 1616 1548 1547 1479 1435 1482 1424 1405 1366 1276 1166 1086 1034 947 881 874 854 911 870 904 856 803 786 811 839 862 872 847 853 883 900 889 756 657 629 651 704 683 586
0 0 0 0 0 0 0 0 0 0 0 0 0 0 0 0 0 0 0 0 0 0 0 0 0 0 0 114 1191 1208 1200 1519 1664 1765 1748 1767 1880 1924 1974 2117 2130 2055 1968 1889 1843 1746 1645 1585 1520 1407 1353 1332 1245 1142 1154 1125 1050 932 894 886 808 719 740 716 640 714 686 655 595 628 621 658 702 661 673 678 699 672 638 511 422 376 341 474 471 453
0 0 0 0 0 0 0 0 0 0 0 0 0 0 0 0 0 0 0 0 0 0 0 0 0 0 0 0 816 1232 1203 1453 1624 1635 1713 1770 1522 1839 1886 1956 1975 1974 1945 1893 1832 1703 1641 1556 1364 1213 1248 1194 1089 1100 1086 994 910 840 833 777 751 625 576 614 469 479 492 528 598 643 603 561 456 383 433 504 493 468 417 296 291 233 213 160 126 183
0 0 0 0 0 0 0 0 0 0 0 0 0 0 0 0 0 0 0 0 0 0 0 0 0 0 76 305 672 1187 1202 1504 1575 1608 1736 1563 1729 1888 1923 1906 1919 1908 1908 1892 1762 1711 1596 1521 1412 1200 1165 1110 1081 1059 848 783 803 918 874 824 862 733 434 298 165 162 175 190 196 403 454 502 503 462 370 300 216 177 153 165 162 169 146 118 111 132
0 0 0 0 0 0 0 0 0 0 0 0 0 0 0 0 0 0 0 0 0 0 0 0 0 0 0 274 604 1127 1206 1505 1481 1555 1678 1611 1597 1869 1881 1921 1930 1897 1950 1892 1704 1637 1570 1504 1349 1193 1117 1053 1157 1116 731 676 883 879 857 776 649 728 584 322 15 0 0 202 363 436 370 185 164 163 170 142 94 67 76 83 90 85 0 0 0 84
0 0 0 0 0 0 0 0 0 0 0 0 0 0 0 0 0 0 0 0 0 0 0 0 0 188 25 254 494 1078 1130 1260 1223 1508 1588 1590 1732 1958 1854 1971 1976 1964 1909 1770 1695 1663 1538 1467 1328 1274 1212 1196 1187 1000 886 731 790 866 690 604 614 518 523 506 417 477 488 465 426 148 110 0 0 0 0 0 0 0 0 0 0 0 0 0 0 0
0 0 0 0 0 0 0 0 0 0 0 0 0 0 0 0 0 0 0 0 0 0 3 266 65 34 144 472 676 934 1121 888 926 700 1026 1252 1358 1812 1803 1913 2036 1952 1748 1667 1622 1587 1583 1476 1303 1262 1169 1173 1092 1085 978 748 566 496 466 473 599 752 755 654 539 487 436 350 0 0 0 0 0 0 0 0 0 0 0 0 0 0 0 0 0 0
0 0 0 0 0 0 0 0 0 0 0 0 0 0 0 0 0 0 0 0 0 0 0 2 42 26 238 482 668 901 998 916 775 584 458 720 963 1379 1721 1883 1951 1831 1748 1702 1701 1657 1606 1379 1296 1345 1266 1184 1067 960 796 572 492 524 561 516 688 844 868 729 566 458 276 0 0 0 0 0 0 0 0 0 0 0 0 0 0 0 0 0 0 0
0 0 0 0 0 0 0 0 0 0 0 0 0 0 0 0 0 0 0 0 0 0 18 82 166 224 288 481 678 1001 955 878 778 664 823 768 727 918 1047 1501 1822 1822 1791 1581 1682 1558 1403 1338 1355 1283 1221 1075 909 732 538 553 656 700 567 590 733 886 881 779 576 371 156 0 0 0 0 0 0 0 0 0 0 0 0 0 0 0 0 0 0 0
0 0 0 0 0 0 0 0 0 0 0 0 0 0 0 0 0 0 0 0 0 0 12 109 84 2 55 394 650 1012 1118 912 658 585 842 786 678 751 748 1108 1640 1511 1733 1612 1535 1296 1223 1250 1161 1066 968 872 716 552 480 556 710 700 648 523 704 796 778 590 372 94 0 0 0 0 0 0 0 0 0 0 0 0 0 0 0 0 0 0 0 0
0 0 0 0 0 0 0 0 0 0 0 0 0 0 0 0 0 0 0 0 0 0 0 115 44 1 0 191 626 919 1173 956 700 810 742 675 760 694 740 1013 1392 1377 1484 1264 1246 1232 1169 1093 987 938 812 633 499 444 430 498 591 610 463 429 572 635 518 268 34 0 0 0 0 0 0 0 0 0 0 0 0 0 0 0 0 0 0 0 0 0
0 0 0 0 0 0 0 0 0 0 0 0 0 0 0 0 0 0 0 0 0 0 28 0 0 0 251 306 534 874 1109 1037 717 567 622 612 611 788 812 1030 528 857 976 619 1071 1179 1067 948 851 783 609 595 562 307 208 174 319 370 267 366 447 379 204 5 0 0 0 0 0 0 0 0 0 0 0 0 0 0 0 0 0 0 0 0 0 0
0 0 0 0 0 0 0 0 0 0 0 0 0 0 0 0 0 0 0 0 0 0 0 0 0 0 214 386 454 805 943 1032 927 716 588 472 666 872 869 860 683 538 318 372 664 820 838 690 586 567 552 496 187 150 91 0 0 80 242 268 251 141 0 0 0 0 0 0 0 0 0 0 0 0 0 0 0 0 0 2 2 3 0 0 0 0
38 0 0 0 0 0 0 0 0 0 0 0 0 0 0 0 0 0 0 0 0 0 0 0 0 136 156 450 444 758 892 782 710 792 749 655 809 938 941 919 509 193 516 519 821 760 657 563 277 488 476 450 351 169 0 0 0 0 171 162 34 0 0 0 0 0 0 0 0 0 0 0 0 0 0 0 0 1 2 2 2 3 2 0 0 0
0 0 0 1 0 0 0 0 0 0 0 0 0 0 0 0 0 0 0 0 0 0 0 0 0 0 411 442 511 616 838 777 713 775 815 835 1009 893 569 278 347 595 818 805 785 801 766 685 622 573 543 389 10 0 4 3 0 0 37 0 0 0 0 0 0 0 0 0 0 0 0 0 0 0 0 0 0 0 1 0 0 1 1 0 0 0
0 0 5 5 0 0 0 0 0 0 0 0 0 0 0 0 0 0 0 0 0 0 0 0 0 288 431 498 499 548 566 649 720 855 919 746 700 657 672 740 777 815 835 754 621 631 736 734 665 614 299 3 1 3 6 4 1 0 0 0 0 0 0 0 0 0 0 0 0 0 0 0 0 0 0 0 0 0 1 1 1 1 1 0 0 0
1 0 12 12 0 0 0 0 0 0 0 0 0 0 0 0 0 0 0 0 0 0 0 0 60 485 380 475 526 556 537 638 784 856 904 821 642 403 429 336 428 862 666 430 510 653 748 542 627 353 20 1 4 7 4 2 0 0 0 0 0 0 0 0 0 0 0 0 0 0 0 0 2 2 0 0 0 0 0 0 0 0 0 0 0 0
2 10 10 17 8 1 0 0 0 0 0 0 0 0 0 0 0 0 0 0 0 0 0 221 232 314 453 517 535 602 622 683 886 865 692 692 662 562 547 393 593 638 371 364 476 472 345 260 312 106 0 2 5 5 4 2 0 0 1 0 0 0 0 0 0 0 0 0 0 0 0 0 0 0 0 0 0 0 0 0 0 0 0 1 1 1
4 16 12 18 240 313 167 110 14 0 0 0 0 0 0 0 0 0 0 0 0 0 0 263 293 298 368 514 540 602 658 681 680 727 764 784 758 706 700 606 534 562 605 499 272 497 216 367 356 247 42 2 4 3 2 0 1 1 0 0 0 0 0 0 0 0 0 0 0 0 0 0 0 0 0 0 0 0 0 0 0 0 0 1 1 1
7 21 19 72 197 150 107 78 14 0 0 0 0 0 0 0 0 0 0 0 0 0 59 281 298 267 318 441 534 547 575 643 687 721 794 798 814 684 472 473 496 279 371 460 495 425 216 274 324 282 104 3 2 0 0 0 0 0 0 0 0 0 0 0 0 0 0 0 0 0 0 0 0 0 0 0 0 0 0 0 0 0 0 0 1 0
0 20 15 141 89 178 167 152 40 0 0 0 0 0 0 0 0 0 0 0 0 4 221 330 276 245 288 380 515 569 569 621 712 736 770 663 526 446 390 427 388 328 257 83 75 63 49 58 71 79 35 2 0 0 0 0 0 0 0 0 0 0 0 0 0 0 0 0 0 0 0 0 0 0 0 0 0 0 0 0 0 0 0 0 1 0
8 22 22 18 25 160 150 136 1 0 0 0 0 0 0 0 0 0 0 0 0 255 271 286 234 246 262 452 555 543 545 578 586 589 538 515 505 422 413 385 235 196 205 167 135 36 27 4 0 2 2 1 4 0 0 0 2 2 6 3 0 0 0 0 0 0 0 0 0 0 0 0 0 0 0 0 0 0 0 0 0 0 0 0 0 0
23 24 21 20 18 45 160 191 82 31 18 10 25 0 1 0 135 0 151 39 71 308 264 179 220 296 357 490 560 528 576 554 570 529 507 532 478 449 432 401 292 92 195 134 99 50 13 6 2 28 33 10 3 0 0 3 6 11 15 7 0 0 0 0 0 0 0 0 0 0 0 0 0 0 0 0 0 0 0 0 0 0 0 0 1 0
10 15 12 18 27 55 56 74 0 50 41 66 202 80 91 129 106 157 124 185 318 140 171 180 256 308 349 430 542 537 516 587 577 472 469 463 416 444 259 379 157 76 56 25 43 12 17 33 38 29 18 9 2 2 10 17 20 24 21 0 0 0 0 0 0 0 0 0 0 0 0 0 0 0 0 0 0 0 0 0 0 0 0 0 0 0
22 8 12 21 22 22 56 8 0 1 25 175 112 359 300 190 176 77 137 134 213 123 187 209 236 221 377 474 496 512 517 526 572 488 403 227 309 244 164 148 115 94 73 28 6 20 9 23 17 29 20 14 25 19 23 31 29 25 19 9 0 0 0 0 0 0 0 0 0 0 0 0 0 0 0 0 0 0 0 0 0 0 0 0 0 0
82 6 14 26 10 6 3 6 0 0 85 12 80 157 337 301 180 144 134 129 137 156 175 208 266 262 310 432 439 464 521 530 556 526 442 292 260 145 68 55 31 43 44 33 11 2 2 4 10 55 74 106 85 50 43 37 40 26 19 6 0 0 0 0 0 0 0 0 0 0 0 0 0 0 0 0 0 0 0 0 0 0 0 0 0 0
89 106 19 15 12 22 9 4 22 160 21 8 170 162 313 322 234 138 150 129 122 162 208 250 245 222 324 399 438 484 509 547 578 413 183 232 150 124 76 111 106 56 32 26 0 0 0 0 4 62 118 89 70 46 36 32 31 24 13 2 0 0 0 0 0 0 0 0 0 0 0 0 0 0 0 0 0 0 0 0 0 0 0 0 0 0
12 128 12 8 18 12 14 23 19 5 29 0 158 287 323 342 272 180 102 186 105 224 198 210 219 237 293 390 469 462 549 548 322 298 282 264 132 162 75 62 51 80 110 110 73 50 44 61 60 47 52 50 31 21 20 22 20 12 6 3 0 0 0 0 0 0 0 0 0 0 0 0 0 0 0 0 0 0 0 0 0 0 0 0 0 0
96 0 5 5 36 0 0 0 0 0 0 97 163 313 331 353 338 404 126 116 110 200 158 216 182 174 283 390 438 458 470 534 505 464 348 141 71 110 94 27 73 78 74 42 29 16 0 8 20 17 11 10 5 9 9 6 4 5 1 0 0 0 0 0 0 0 0 0 0 0 0 0 0 0 0 0 0 0 0 0 0 0 0 0 0 0
91 36 0 2 2 0 0 0 0 0 168 16 230 272 274 323 258 270 16 85 82 183 163 239 302 202 256 387 394 445 453 532 486 420 265 199 47 101 86 65 66 40 7 10 4 0 0 0 0 0 1 2 2 0 0 0 0 0 0 0 0 0 0 0 0 0 0 0 0 0 0 0 0 0 0 0 0 0 0 0 0 0 0 0 0 0
84 71 2 19 0 0 0 0 0 0 0 0 271 279 234 249 292 109 7 138 103 205 231 246 368 220 257 331 352 469 375 468 302 163 172 213 165 95 53 29 38 4 0 0 0 0 0 0 0 0 0 0 0 0 0 0 0 0 0 0 0 0 0 0 0 0 0 0 0 0 0 0 0 0 0 0 0 0 0 0 0 0 0 0 0 0
13 10 4 5 2 0 0 0 0 68 0 42 196 236 223 0 9 64 19 8 133 289 311 309 300 189 246 302 289 332 330 323 240 72 135 97 174 90 67 35 8 0 0 0 0 0 0 0 0 0 0 0 0 0 0 0 0 0 0 0 0 0 0 0 0 0 0 0 0 0 0 0 0 0 0 0 0 0 0 0 0 0 0 0 0 0
40 1 2 0 0 0 0 0 0 12 0 0 169 177 153 19 106 54 26 0 92 351 268 344 260 208 208 279 286 311 283 231 157 101 121 136 179 138 70 2 0 0 0 0 0 0 0 0 0 0 0 0 0 0 0 0 0 0 0 0 0 0 0 0 0 0 0 0 0 0 0 0 0 0 0 0 0 0 0 0 0 0 0 1 0 0
40 8 21 8 0 28 6 0 0 0 0 203 134 199 154 21 243 67 0 0 0 232 242 262 174 68 190 304 263 266 251 111 71 62 98 136 144 152 22 0 0 0 0 0 0 0 0 0 0 0 0 0 0 0 0 0 0 0 0 0 0 0 0 0 0 0 0 0 0 0 0 0 0 0 0 0 0 0 0 0 0 0 0 0 0 0
28 12 10 56 0 9 11 0 38 0 0 196 212 182 43 0 174 93 0 0 0 45 0 56 18 129 187 270 274 261 136 84 113 38 122 64 82 23 0 0 0 2 1 0 0 0 0 0 0 0 0 0 0 0 0 0 0 0 0 0 0 0 0 0 0 0 0 0 0 0 0 0 0 0 0 0 0 0 0 0 0 0 0 0 0 0
9 2 17 21 19 0 0 0 0 0 24 183 188 182 124 63 32 48 45 0 0 0 0 0 0 0 187 248 121 73 104 22 32 51 41 13 2 0 0 3 8 8 4 0 0 0 0 0 0 0 0 0 0 0 0 0 0 0 0 0 0 0 0 0 0 0 0 0 0 0 0 0 0 0 0 0 0 0 0 0 0 0 0 0 0 0
0 0 29 163 150 0 0 0 0 0 0 22 156 83 47 62 101 77 82 50 21 0 0 0 0 0 198 222 259 244 208 194 147 6 45 19 20 0 1 16 27 18 5 0 0 0 0 0 1 1 2 0 0 0 0 0 0 0 0 0 0 0 0 0 0 0 0 0 0 0 0 0 0 0 0 0 0 0 0 0 0 0 0 0 0 0
0 0 0 0 0 0 0 0 0 0 0 0 7 27 35 49 66 56 37 20 10 0 0 0 0 0 143 187 190 22 179 99 164 2 8 48 54 1 15 33 51 26 6 1 2 0 0 0 4 3 2 1 0 0 0 0 0 0 0 0 0 0 0 0 0 0 0 0 0 0 0 0 0 0 0 0 0 0 0 0 0 0 0 0 0 0
9 0 0 0 0 1 0 0 0 0 0 0 6 50 47 36 22 12 0 0 0 0 0 0 0 0 2 9 4 18 139 13 32 12 7 31 35 16 34 23 30 23 6 2 2 0 0 2 3 1 0 0 0 0 0 0 0 0 0 0 0 0 0 0 0 0 0 0 0 0 0 0 0 0 0 0 0 0 0 0 0 0 0 0 0 0
0 0 0 0 0 0 1 0 0 0 0 0 0 2 0 20 15 4 0 0 0 0 0 0 0 5 24 38 31 2 7 48 8 4 7 28 59 65 35 2 0 13 10 0 0 2 3 4 0 0 0 0 0 0 0 0 0 0 0 0 0 0 0 0 0 0 0 0 0 0 0 0 0 0 0 0 0 0 0 0 0 0 0 0 0 0
0 0 0 0 1 1 0 0 0 0 0 0 0 0 0 0 0 0 0 0 0 0 0 3 1 3 8 5 2 20 26 17 49 15 18 55 44 38 0 0 0 9 3 3 5 7 10 5 0 0 0 0 0 0 0 0 0 0 0 0 0 0 0 0 0 0 0 0 0 0 0 0 0 0 0 0 0 0 0 0 0 0 0 0 0 0
Wind_Speed
nan nan nan nan nan nan nan nan nan nan nan nan nan nan nan nan nan nan nan nan nan nan nan nan nan nan nan nan 27 28 27 27 28 31 31 28 28 27 27 27 25 24 25 26 26 26 26 27 27 27 27 27 27 26 24 21 18 16 14 12 11 10 11 11 12 12 14 15 15 15 15 13 14 16 17 16 15 15 14 13 14 15 15 15 15 16
nan nan nan nan nan nan nan nan nan nan nan nan nan nan nan nan nan nan nan nan nan nan nan nan nan nan nan 27 25 28 32 28 26 27 27 27 25 27 27 26 24 24 25 27 27 27 26 26 27 28 28 28 28 26 24 21 18 16 15 13 12 12 12 13 14 14 14 15 15 15 13 14 15 17 18 15 16 15 15 15 15 15 16 16 16 16
nan nan nan nan nan nan nan nan nan nan nan nan nan nan nan nan nan nan nan nan nan nan nan nan nan nan nan nan 25 29 27 25 24 25 24 26 25 26 25 24 23 23 24 25 28 28 26 27 27 27 27 27 27 27 24 21 19 18 16 14 14 14 14 14 14 14 12 12 13 15 14 16 16 18 19 19 17 18 18 18 18 17 17 17 16 16
nan nan nan nan nan nan nan nan nan nan nan nan nan nan nan nan nan nan nan nan nan nan nan nan nan nan nan nan 28 24 25 26 23 24 26 25 27 26 25 21 19 22 23 25 27 26 26 25 27 27 27 26 27 27 24 21 20 18 17 16 15 15 15 14 13 12 12 12 13 14 16 17 19 21 21 21 19 19 19 17 20 18 17 16 15 15
nan nan nan nan nan nan nan nan nan nan nan nan nan nan nan nan nan nan nan nan nan nan nan nan nan nan nan nan 32 33 38 36 32 36 38 36 33 30 28 23 18 22 24 24 25 24 25 26 25 25 25 25 25 24 22 21 20 19 18 17 17 16 15 14 14 14 14 15 15 16 16 19 20 22 23 22 19 19 18 17 17 15 17 16 14 14
nan nan nan nan nan nan nan nan nan nan nan nan nan nan nan nan nan nan nan nan nan nan nan nan nan nan nan nan 30 33 37 35 30 32 29 28 25 22 25 23 22 25 20 17 21 22 24 26 27 26 24 23 23 23 21 20 20 20 20 20 19 18 17 17 16 15 16 16 17 17 19 19 22 23 23 22 19 17 16 15 16 15 16 15 14 13
nan nan nan nan nan nan nan nan nan nan nan nan nan nan nan nan nan nan nan nan nan nan nan nan nan nan nan nan 30 34 33 32 31 30 29 27 26 26 26 25 25 24 18 14 17 20 23 26 27 25 23 22 24 23 23 22 22 22 22 22 21 20 19 18 18 16 17 18 17 18 19 20 23 24 21 21 19 17 15 15 14 14 16 16 14 12
nan nan nan nan nan nan nan nan nan nan nan nan nan nan nan nan nan nan nan nan nan nan nan nan nan nan nan 35 33 31 34 32 30 30 27 26 26 28 29 27 24 19 15 15 17 21 23 24 25 25 25 25 26 25 26 25 24 25 25 24 23 21 21 19 20 20 19 19 18 19 20 21 23 24 21 19 18 19 18 17 16 16 15 15 15 14
nan nan nan nan nan nan nan nan nan nan nan nan nan nan nan nan nan nan nan nan nan nan nan nan nan nan nan 34 37 33 35 31 29 28 26 27 27 29 31 30 23 16 13 14 16 20 22 21 23 25 26 25 28 28 28 27 26 26 26 26 24 23 22 21 22 22 20 20 20 20 21 24 23 24 23 21 21 21 20 20 17 17 15 15 14 15
nan nan nan nan nan nan nan nan nan nan nan nan nan nan nan nan nan nan nan nan nan nan nan nan nan nan nan 36 35 31 32 30 28 25 24 25 28 32 35 28 20 15 13 14 18 21 20 20 22 24 25 28 28 28 29 28 27 26 26 26 27 24 23 21 22 22 21 20 21 22 23 24 23 24 24 24 24 22 20 20 19 18 17 16 14 14
nan nan nan nan nan nan nan nan nan nan nan nan nan nan nan nan nan nan nan nan nan nan nan nan nan nan nan 33 33 32 30 30 31 27 25 28 33 33 29 26 20 15 14 16 20 23 23 25 27 28 29 29 29 30 30 29 27 26 26 26 27 24 24 23 22 23 22 22 21 23 23 24 24 24 25 25 24 22 21 21 19 18 17 16 15 15
nan nan nan nan nan nan nan nan nan nan nan nan nan nan nan nan nan nan nan nan nan nan nan nan nan nan nan 38 34 36 38 29 30 30 27 26 27 25 26 27 24 18 18 21 24 26 28 32 33 33 32 31 32 32 31 28 28 27 26 28 29 27 26 24 25 25 24 24 24 23 24 25 24 26 26 26 24 22 21 20 19 17 17 18 17 17
nan nan nan nan nan nan nan nan nan nan nan nan nan nan nan nan nan nan nan nan nan nan nan nan nan nan nan nan 35 31 35 29 25 27 28 29 28 26 26 28 24 19 21 25 27 27 29 33 34 36 33 33 34 32 32 31 29 29 29 30 31 29 26 26 26 26 25 25 24 24 25 24 24 26 27 26 24 21 21 20 19 18 18 18 19 18
nan nan nan nan nan nan nan nan nan nan nan nan nan nan nan nan nan nan nan nan nan nan nan nan nan nan nan 36 36 33 31 27 24 22 27 32 33 31 29 27 23 21 24 28 29 29 31 32 34 34 34 34 32 32 33 33 29 29 31 31 32 29 25 26 28 27 27 26 25 25 25 25 25 26 25 26 25 22 21 20 19 18 18 18 18 18
nan nan nan nan nan nan nan nan nan nan nan nan nan nan nan nan nan nan nan nan nan nan nan nan nan nan nan 35 39 35 32 30 33 33 34 39 41 37 33 29 26 26 27 28 28 29 31 31 32 33 34 33 30 29 31 31 30 30 32 31 30 28 28 29 nan nan nan 25 25 25 25 25 26 26 25 24 nan nan nan nan nan nan nan nan nan nan
nan nan nan nan nan nan nan nan nan nan nan nan nan nan nan nan nan nan nan nan nan nan nan nan nan 44 nan 37 37 38 44 51 49 49 44 43 43 40 33 29 26 27 28 28 30 30 30 29 29 31 31 29 28 27 28 29 29 30 30 30 28 29 29 29 29 27 26 25 26 25 25 nan nan nan nan nan nan nan nan nan nan nan nan nan nan nan
nan nan nan nan nan nan nan nan nan nan nan nan nan nan nan nan nan nan nan nan nan nan nan 45 nan nan 40 37 43 43 49 45 39 40 49 47 39 36 32 30 27 28 29 28 29 30 30 28 29 29 30 28 27 26 27 28 29 30 29 29 30 30 29 30 27 26 25 26 nan nan nan nan nan nan nan nan nan nan nan nan nan nan nan nan nan nan
nan nan nan nan nan nan nan nan nan nan nan nan nan nan nan nan nan nan nan nan nan nan nan nan nan nan 41 38 41 42 46 39 33 37 39 45 38 34 30 30 29 29 30 29 29 32 34 32 31 30 30 29 28 28 29 31 31 30 29 30 32 30 30 27 27 28 28 nan nan nan nan nan nan nan nan nan nan nan nan nan nan nan nan nan nan nan
nan nan nan nan nan nan nan nan nan nan nan nan nan nan nan nan nan nan nan nan nan nan nan nan 41 43 37 38 37 35 40 35 33 33 32 36 33 34 31 31 33 31 30 28 28 32 33 30 27 28 31 31 31 31 32 33 33 32 30 30 30 30 28 28 28 29 28 nan nan nan nan nan nan nan nan nan nan nan nan nan nan nan nan nan nan nan
nan nan nan nan nan nan nan nan nan nan nan nan nan nan nan nan nan nan nan nan nan nan nan 42 nan nan nan 37 30 31 32 34 35 32 29 32 35 31 29 30 31 30 29 29 29 32 29 25 23 24 28 33 34 34 35 35 34 32 30 31 30 29 29 30 31 nan nan nan nan nan nan nan nan nan nan nan nan nan nan nan nan nan nan nan nan nan
nan nan nan nan nan nan nan nan nan nan nan nan nan nan nan nan nan nan nan nan nan nan nan 46 nan nan nan 35 33 32 31 32 33 32 33 33 33 33 29 28 29 32 32 31 30 30 29 27 23 22 25 30 34 35 36 35 33 31 32 32 31 33 33 33 nan nan nan nan nan nan nan nan nan nan nan nan nan nan nan nan nan nan nan nan nan nan
nan nan nan nan nan nan nan nan nan nan nan nan nan nan nan nan nan nan nan nan nan nan nan nan nan nan 36 38 35 36 34 36 36 37 37 36 33 33 37 33 31 32 33 32 28 28 29 26 24 24 25 26 32 34 36 35 34 35 35 34 34 34 33 nan nan nan nan nan nan nan nan nan nan nan nan nan nan nan nan nan nan nan nan nan nan nan
nan nan nan nan nan nan nan nan nan nan nan nan nan nan nan nan nan nan nan nan nan nan nan nan nan nan 40 41 39 40 39 39 41 39 39 38 36 35 38 38 35 33 32 32 29 29 28 26 26 27 29 31 31 32 nan nan nan nan 38 36 34 35 nan nan nan nan nan nan nan nan nan nan nan nan nan nan nan nan nan nan nan nan nan nan nan nan
nan nan nan nan nan nan nan nan nan nan nan nan nan nan nan nan nan nan nan nan nan nan nan nan nan 44 44 43 42 45 44 44 44 43 43 40 39 37 36 35 35 33 34 35 33 30 29 30 30 32 33 33 31 31 nan nan nan nan 39 36 nan nan nan nan nan nan nan nan nan nan nan nan nan nan nan nan nan nan nan nan nan nan nan nan nan nan
nan nan nan nan nan nan nan nan nan nan nan nan nan nan nan nan nan nan nan nan nan nan nan nan nan nan 43 44 46 46 46 46 47 44 42 42 39 39 38 36 35 37 37 37 35 33 33 34 35 34 33 32 nan nan nan nan nan nan nan nan nan nan nan nan nan nan nan nan nan nan nan nan nan nan nan nan nan nan nan nan nan nan nan nan nan nan
nan nan nan nan nan nan nan nan nan nan nan nan nan nan nan nan nan nan nan nan nan nan nan nan nan 41 43 45 46 46 47 48 47 46 43 39 37 36 36 36 37 39 38 38 36 36 36 34 34 35 33 nan nan nan nan nan nan nan nan nan nan nan nan nan nan nan nan nan nan nan nan nan nan nan nan nan nan nan nan nan nan nan nan nan nan nan
nan nan nan nan nan nan nan nan nan nan nan nan nan nan nan nan nan nan nan nan nan nan nan nan nan 45 43 41 43 44 46 47 46 43 43 40 38 35 31 31 34 38 39 38 36 34 35 36 37 37 nan nan nan nan nan nan nan nan nan nan nan nan nan nan nan nan nan nan nan nan nan nan nan nan nan nan nan nan nan nan nan nan nan nan nan nan
nan nan nan nan nan nan nan nan nan nan nan nan nan nan nan nan nan nan nan nan nan nan nan 48 46 49 41 43 43 44 46 46 43 41 41 42 41 39 38 39 41 42 41 38 37 37 39 40 40 40 nan nan nan nan nan nan nan nan nan nan nan nan nan nan nan nan nan nan nan nan nan nan nan nan nan nan nan nan nan nan nan nan nan nan nan nan
nan nan nan nan 38 42 43 39 nan nan nan nan nan nan nan nan nan nan nan nan nan nan nan 41 42 44 43 39 40 40 41 41 40 39 40 42 43 42 42 43 42 42 41 39 38 39 41 41 41 42 nan nan nan nan nan nan nan nan nan nan nan nan nan nan nan nan nan nan nan nan nan nan nan nan nan nan nan nan nan nan nan nan nan nan nan nan
nan nan nan nan 36 40 45 nan nan nan nan nan nan nan nan nan nan nan nan nan nan nan nan 43 36 40 40 38 39 42 45 46 44 43 42 42 42 42 40 40 41 42 43 41 39 40 41 41 41 42 42 nan nan nan nan nan nan nan nan nan nan nan nan nan nan nan nan nan nan nan nan nan nan nan nan nan nan nan nan nan nan nan nan nan nan nan
nan nan nan 44 nan 38 40 42 nan nan nan nan nan nan nan nan nan nan nan nan nan nan 49 46 46 47 44 43 44 44 45 48 48 46 45 43 43 42 42 43 46 46 44 nan nan nan nan nan nan nan nan nan nan nan nan nan nan nan nan nan nan nan nan nan nan nan nan nan nan nan nan nan nan nan nan nan nan nan nan nan nan nan nan nan nan nan
nan nan nan nan nan 38 38 41 nan nan nan nan nan nan nan nan nan nan nan nan nan 47 51 52 51 45 40 41 41 40 40 43 44 45 45 43 44 46 48 47 46 43 41 40 40 nan nan nan nan nan nan nan nan nan nan nan nan nan nan nan nan nan nan nan nan nan nan nan nan nan nan nan nan nan nan nan nan nan nan nan nan nan nan nan nan nan
nan nan nan nan nan nan 38 39 nan nan nan nan nan nan nan nan 44 nan 48 nan nan 44 48 48 39 40 38 37 38 36 37 39 40 39 42 42 42 45 46 43 40 nan 39 39 nan nan nan nan nan nan nan nan nan nan nan nan nan nan nan nan nan nan nan nan nan nan nan nan nan nan nan nan nan nan nan nan nan nan nan nan nan nan nan nan nan nan
nan nan nan nan nan nan nan nan nan nan nan nan 40 nan nan 40 43 47 50 47 43 45 42 43 42 44 41 39 38 36 36 36 38 38 39 39 38 39 38 38 37 nan nan nan nan nan nan nan nan nan nan nan nan nan nan nan nan nan nan nan nan nan nan nan nan nan nan nan nan nan nan nan nan nan nan nan nan nan nan nan nan nan nan nan nan nan
nan nan nan nan nan nan nan nan nan nan nan 37 38 38 36 35 42 nan 56 55 47 45 49 53 48 40 37 39 42 43 44 43 41 42 38 36 36 36 36 37 39 nan nan nan nan nan nan nan nan nan nan nan nan nan nan nan nan nan nan nan nan nan nan nan nan nan nan nan nan nan nan nan nan nan nan nan nan nan nan nan nan nan nan nan nan nan
nan nan nan nan nan nan nan nan nan nan nan nan nan 33 38 39 42 52 59 55 51 45 47 49 46 45 45 47 48 48 49 50 50 45 39 36 34 38 nan nan nan nan nan nan nan nan nan nan nan nan nan 39 nan nan nan nan nan nan nan nan nan nan nan nan nan nan nan nan nan nan nan nan nan nan nan nan nan nan nan nan nan nan nan nan nan nan
nan 42 nan nan nan nan nan nan nan 39 nan nan 36 35 36 38 40 44 47 48 50 46 47 51 51 49 49 49 51 50 50 52 50 42 36 38 38 37 nan 40 40 nan nan nan nan nan nan nan nan nan 35 nan nan nan nan nan nan nan nan nan nan nan nan nan nan nan nan nan nan nan nan nan nan nan nan nan nan nan nan nan nan nan nan nan nan nan
nan 40 nan nan nan nan nan nan nan nan nan nan 27 35 37 40 43 46 50 49 50 48 45 50 50 49 48 47 49 49 47 46 41 35 32 36 38 39 nan nan nan nan 37 36 nan nan nan nan nan nan nan nan nan nan nan nan nan nan nan nan nan nan nan nan nan nan nan nan nan nan nan nan nan nan nan nan nan nan nan nan nan nan nan nan nan nan
nan nan nan nan nan nan nan nan nan nan nan nan 26 30 35 38 38 42 52 48 48 46 42 46 46 43 43 43 42 42 39 32 26 27 28 34 nan 36 nan nan nan nan nan nan nan nan nan nan nan nan nan nan nan nan nan nan nan nan nan nan nan nan nan nan nan nan nan nan nan nan nan nan nan nan nan nan nan nan nan nan nan nan nan nan nan nan
nan nan nan nan nan nan nan nan nan nan 34 nan 27 30 32 36 37 45 nan nan nan 41 41 39 40 39 38 37 37 35 32 29 25 26 30 33 nan 33 nan nan nan nan nan nan nan nan nan nan nan nan nan nan nan nan nan nan nan nan nan nan nan nan nan nan nan nan nan nan nan nan nan nan nan nan nan nan nan nan nan nan nan nan nan nan nan nan
nan nan nan nan nan nan nan nan nan nan nan nan 31 29 31 30 38 41 nan 35 36 38 37 36 35 36 36 36 33 34 34 37 40 41 37 36 36 nan nan nan nan nan nan nan nan nan nan nan nan nan nan nan nan nan nan nan nan nan nan nan nan nan nan nan nan nan nan nan nan nan nan nan nan nan nan nan nan nan nan nan nan nan nan nan nan nan
nan nan nan nan nan nan nan nan nan nan nan nan 35 32 28 nan nan nan nan nan 38 39 38 36 36 35 35 34 39 41 42 50 48 nan 41 nan 39 nan nan nan nan nan nan nan nan nan nan nan nan nan nan nan nan nan nan nan nan nan nan nan nan nan nan nan nan nan nan nan nan nan nan nan nan nan nan nan nan nan nan nan nan nan nan nan nan nan
nan nan nan nan nan nan nan nan nan nan nan nan 34 35 31 nan 26 nan nan nan nan 38 38 36 36 36 38 40 40 44 49 50 48 43 41 41 40 38 nan nan nan nan nan nan nan nan nan nan nan nan nan nan nan nan nan nan nan nan nan nan nan nan nan nan nan nan nan nan nan nan nan nan nan nan nan nan nan nan nan nan nan nan nan nan nan nan
nan nan nan nan nan nan nan nan nan nan nan 30 30 29 27 nan 27 nan nan nan nan 30 34 34 35 nan 38 42 42 44 48 48 nan nan nan 39 38 36 nan nan nan nan nan nan nan nan nan nan nan nan nan nan nan nan nan nan nan nan nan nan nan nan nan nan nan nan nan nan nan nan nan nan nan nan nan nan nan nan nan nan nan nan nan nan nan nan
nan nan nan nan nan nan nan nan nan nan nan 27 27 26 nan nan 25 nan nan nan nan nan nan nan nan 36 38 40 43 44 43 nan 43 nan 39 nan nan nan nan nan nan nan nan nan nan nan nan nan nan nan nan nan nan nan nan nan nan nan nan nan nan nan nan nan nan nan nan nan nan nan nan nan nan nan nan nan nan nan nan nan nan nan nan nan nan nan
nan nan nan nan nan nan nan nan nan nan nan 30 30 28 28 nan nan nan nan nan nan nan nan nan nan nan 39 42 44 nan 43 nan nan nan nan nan nan nan nan nan nan nan nan nan nan nan nan nan nan nan nan nan nan nan nan nan nan nan nan nan nan nan nan nan nan nan nan nan nan nan nan nan nan nan nan nan nan nan nan nan nan nan nan nan nan nan
nan nan nan 25 21 nan nan nan nan nan nan nan 33 nan nan nan 28 nan nan nan nan nan nan nan nan nan 36 38 40 39 39 39 39 nan nan nan nan nan nan nan nan nan nan nan nan nan nan nan nan nan nan nan nan nan nan nan nan nan nan nan nan nan nan nan nan nan nan nan nan nan nan nan nan nan nan nan nan nan nan nan nan nan nan nan nan nan
nan nan nan nan nan nan nan nan nan nan nan nan nan nan nan nan nan nan nan nan nan nan nan nan nan nan 30 33 34 nan 35 nan 36 nan nan nan nan nan nan nan nan nan nan nan nan nan nan nan nan nan nan nan nan nan nan nan nan nan nan nan nan nan nan nan nan nan nan nan nan nan nan nan nan nan nan nan nan nan nan nan nan nan nan nan nan nan
nan nan nan nan nan nan nan nan nan nan nan nan nan nan nan nan nan nan nan nan nan nan nan nan nan nan nan nan nan nan 33 nan nan nan nan nan nan nan nan nan nan nan nan nan nan nan nan nan nan nan nan nan nan nan nan nan nan nan nan nan nan nan nan nan nan nan nan nan nan nan nan nan nan nan nan nan nan nan nan nan nan nan nan nan nan nan
nan nan nan nan nan nan nan nan nan nan nan nan nan nan nan nan nan nan nan nan nan nan nan nan nan nan nan nan nan nan nan nan nan nan nan nan nan nan nan nan nan nan nan nan nan nan nan nan nan nan nan nan nan nan nan nan nan nan nan nan nan nan nan nan nan nan nan nan nan nan nan nan nan nan nan nan nan nan nan nan nan nan nan nan nan nan
nan nan nan nan nan nan nan nan nan nan nan nan nan nan nan nan nan nan nan nan nan nan nan nan nan nan nan nan nan nan nan nan nan nan nan nan nan nan nan nan nan nan nan nan nan nan nan nan nan nan nan nan nan nan nan nan nan nan nan nan nan nan nan nan nan nan nan nan nan nan nan nan nan nan nan nan nan nan nan nan nan nan nan nan nan nan
Wind_Direction
nan nan nan nan nan nan nan nan nan nan nan nan nan nan nan nan nan nan nan nan nan nan nan nan nan nan nan nan 255 264 259 246 254 256 252 254 255 251 253 256 253 257 259 258 259 259 257 256 255 259 267 270 270 273 276 281 288 298 297 280 265 252 254 262 267 269 275 279 276 272 271 276 281 282 282 283 284 283 284 279 274 272 278 285 294 304
nan nan nan nan nan nan nan nan nan nan nan nan nan nan nan nan nan nan nan nan nan nan nan nan nan nan nan 233 251 254 257 259 262 261 260 258 256 251 255 255 257 255 254 261 261 262 262 260 264 263 268 274 275 276 277 283 286 287 287 277 261 253 256 261 265 269 275 280 283 280 281 282 280 279 280 280 280 280 278 279 276 276 278 285 298 303
nan nan nan nan nan nan nan nan nan nan nan nan nan nan nan nan nan nan nan nan nan nan nan nan nan nan nan nan 237 252 259 260 265 271 268 263 254 248 249 256 261 264 268 266 263 262 264 269 268 265 264 263 264 269 273 276 279 280 276 264 260 261 265 266 271 274 279 280 279 277 278 280 274 278 283 285 283 277 275 277 279 278 281 289 296 300
nan nan nan nan nan nan nan nan nan nan nan nan nan nan nan nan nan nan nan nan nan nan nan nan nan nan nan nan 237 245 256 248 250 253 252 254 258 256 252 257 268 274 275 274 272 269 269 268 266 264 263 262 263 263 264 270 274 271 267 265 264 265 267 268 275 279 277 280 275 272 275 274 274 275 275 277 276 272 267 265 272 277 281 285 290 293
nan nan nan nan nan nan nan nan nan nan nan nan nan nan nan nan nan nan nan nan nan nan nan nan nan nan nan nan 223 224 226 240 243 238 221 219 225 233 239 244 260 272 275 280 282 275 271 268 263 260 259 258 255 257 262 265 269 269 268 267 268 268 270 273 276 280 287 279 271 269 268 267 269 271 267 268 266 266 265 263 262 270 276 282 286 289
nan nan nan nan nan nan nan nan nan nan nan nan nan nan nan nan nan nan nan nan nan nan nan nan nan nan nan nan 240 232 238 238 239 249 249 235 237 243 243 246 252 255 255 282 293 283 272 266 259 253 255 252 253 257 259 264 267 267 264 265 266 264 266 271 273 280 276 271 273 268 265 264 265 268 264 263 265 258 258 265 267 264 273 280 286 292
nan nan nan nan nan nan nan nan nan nan nan nan nan nan nan nan nan nan nan nan nan nan nan nan nan nan nan nan 231 240 245 245 239 245 250 251 257 251 249 242 254 265 272 279 281 277 270 265 261 257 255 250 252 254 258 262 265 264 263 261 259 259 259 260 265 267 271 267 267 272 274 274 272 271 273 275 273 271 267 269 266 271 276 284 290 294
nan nan nan nan nan nan nan nan nan nan nan nan nan nan nan nan nan nan nan nan nan nan nan nan nan nan nan 217 219 244 251 245 247 244 251 252 251 254 251 245 254 262 272 282 281 278 271 266 266 263 255 250 251 253 255 257 259 261 262 263 260 258 258 262 266 263 267 273 270 269 268 270 268 273 273 267 268 269 269 265 269 272 276 283 294 297
nan nan nan nan nan nan nan nan nan nan nan nan nan nan nan nan nan nan nan nan nan nan nan nan nan nan nan 216 220 233 248 251 258 254 252 253 251 253 252 247 247 249 264 275 278 273 268 266 261 259 257 253 252 253 255 257 261 263 265 264 259 256 259 260 263 265 264 270 273 272 272 267 266 270 269 269 269 264 263 266 266 271 277 280 283 289
nan nan nan nan nan nan nan nan nan nan nan nan nan nan nan nan nan nan nan nan nan nan nan nan nan nan nan 221 232 231 242 256 256 259 258 258 257 255 248 245 242 249 255 261 265 264 263 263 265 264 260 254 254 256 255 256 258 260 262 259 256 254 257 261 264 266 266 268 271 269 268 267 263 264 264 265 262 261 264 266 266 266 266 267 271 278
nan nan nan nan nan nan nan nan nan nan nan nan nan nan nan nan nan nan nan nan nan nan nan nan nan nan nan 222 232 242 235 244 247 245 247 246 246 253 254 251 251 259 256 260 268 265 268 277 280 273 262 255 253 254 254 254 256 258 257 256 255 258 261 261 264 262 262 265 267 272 273 273 269 265 262 260 259 261 264 264 264 263 265 267 268 272
nan nan nan nan nan nan nan nan nan nan nan nan nan nan nan nan nan nan nan nan nan nan nan nan nan nan nan 219 227 228 222 242 255 259 263 255 256 262 256 249 254 263 256 263 270 266 272 281 279 270 261 256 253 254 255 254 257 257 256 256 259 256 259 260 261 261 262 264 265 268 271 271 269 266 262 260 261 262 266 266 266 266 268 265 267 271
nan nan nan nan nan nan nan nan nan nan nan nan nan nan nan nan nan nan nan nan nan nan nan nan nan nan nan nan 222 237 231 244 248 262 276 281 278 273 270 260 259 263 265 268 271 269 273 276 273 268 264 257 252 255 257 256 257 258 257 257 260 260 262 266 266 265 264 264 265 268 269 269 268 265 264 264 265 269 270 267 266 266 268 270 266 267
nan nan nan nan nan nan nan nan nan nan nan nan nan nan nan nan nan nan nan nan nan nan nan nan nan nan nan 220 218 223 223 244 247 249 270 281 276 275 269 260 260 264 268 269 270 270 272 271 268 265 261 257 253 254 258 260 257 260 260 259 262 263 267 269 267 267 265 264 264 265 267 268 266 263 263 263 265 267 271 272 272 273 272 271 274 275
nan nan nan nan nan nan nan nan nan nan nan nan nan nan nan nan nan nan nan nan nan nan nan nan nan nan nan 220 215 214 209 222 227 231 237 247 250 250 249 248 253 260 264 266 269 271 270 269 269 261 255 253 251 252 255 260 262 259 260 261 261 264 263 263 nan nan nan 268 269 268 268 270 270 266 264 264 nan nan nan nan nan nan nan nan nan nan
nan nan nan nan nan nan nan nan nan nan nan nan nan nan nan nan nan nan nan nan nan nan nan nan nan 214 nan 217 212 217 228 225 220 215 225 237 237 242 242 244 247 255 261 264 269 268 267 269 264 254 250 250 250 249 252 256 259 261 261 263 263 263 263 265 265 264 266 268 269 268 268 nan nan nan nan nan nan nan nan nan nan nan nan nan nan nan
nan nan nan nan nan nan nan nan nan nan nan nan nan nan nan nan nan nan nan nan nan nan nan 207 nan nan 221 219 217 222 229 235 234 221 219 222 226 239 242 244 246 252 258 264 268 266 265 264 257 250 250 249 248 249 252 254 256 259 260 260 260 260 262 261 262 264 263 264 nan nan nan nan nan nan nan nan nan nan nan nan nan nan nan nan nan nan
nan nan nan nan nan nan nan nan nan nan nan nan nan nan nan nan nan nan nan nan nan nan nan nan nan nan 227 222 222 227 234 232 237 239 225 222 212 223 235 245 247 251 256 261 265 266 264 261 257 252 251 252 252 251 252 251 251 254 256 259 260 258 259 260 261 261 262 nan nan nan nan nan nan nan nan nan nan nan nan nan nan nan nan nan nan nan
nan nan nan nan nan nan nan nan nan nan nan nan nan nan nan nan nan nan nan nan nan nan nan nan 218 218 221 226 232 238 249 246 238 240 246 248 226 218 226 240 245 249 255 256 259 261 260 262 263 257 254 253 251 245 246 249 251 251 251 253 257 258 258 258 259 262 262 nan nan nan nan nan nan nan nan nan nan nan nan nan nan nan nan nan nan nan
nan nan nan nan nan nan nan nan nan nan nan nan nan nan nan nan nan nan nan nan nan nan nan 213 nan nan nan 228 238 249 256 254 251 250 252 263 261 231 224 239 246 250 254 252 253 259 263 267 272 268 258 252 251 252 251 250 249 252 253 253 253 253 255 257 257 nan nan nan nan nan nan nan nan nan nan nan nan nan nan nan nan nan nan nan nan nan
nan nan nan nan nan nan nan nan nan nan nan nan nan nan nan nan nan nan nan nan nan nan nan 223 nan nan nan 231 238 240 242 251 261 263 258 260 265 261 246 245 248 250 252 251 252 261 266 269 273 273 261 253 252 252 253 253 253 252 250 250 251 256 256 256 nan nan nan nan nan nan nan nan nan nan nan nan nan nan nan nan nan nan nan nan nan nan
nan nan nan nan nan nan nan nan nan nan nan nan nan nan nan nan nan nan nan nan nan nan nan nan nan nan 219 227 241 242 240 242 245 260 262 263 263 262 262 254 248 248 251 252 252 258 262 266 266 262 263 261 256 252 250 251 251 248 247 251 255 255 254 nan nan nan nan nan nan nan nan nan nan nan nan nan nan nan nan nan nan nan nan nan nan nan
nan nan nan nan nan nan nan nan nan nan nan nan nan nan nan nan nan nan nan nan nan nan nan nan nan nan 221 225 230 241 241 244 248 253 256 259 258 257 260 257 252 251 250 251 251 251 253 258 263 266 265 262 261 256 nan nan nan nan 249 250 253 256 nan nan nan nan nan nan nan nan nan nan nan nan nan nan nan nan nan nan nan nan nan nan nan nan
nan nan nan nan nan nan nan nan nan nan nan nan nan nan nan nan nan nan nan nan nan nan nan nan nan 222 220 225 230 241 241 243 245 251 257 259 258 253 254 258 259 257 257 252 248 249 254 259 264 267 265 262 262 259 nan nan nan nan 249 251 nan nan nan nan nan nan nan nan nan nan nan nan nan nan nan nan nan nan nan nan nan nan nan nan nan nan
nan nan nan nan nan nan nan nan nan nan nan nan nan nan nan nan nan nan nan nan nan nan nan nan nan nan 224 228 234 240 244 247 250 252 262 266 261 258 258 259 259 262 260 258 257 257 259 261 265 268 268 264 nan nan nan nan nan nan nan nan nan nan nan nan nan nan nan nan nan nan nan nan nan nan nan nan nan nan nan nan nan nan nan nan nan nan
nan nan nan nan nan nan nan nan nan nan nan nan nan nan nan nan nan nan nan nan nan nan nan nan nan 222 229 236 242 245 246 246 249 255 251 248 250 250 252 255 258 258 257 259 261 262 263 264 266 268 266 nan nan nan nan nan nan nan nan nan nan nan nan nan nan nan nan nan nan nan nan nan nan nan nan nan nan nan nan nan nan nan nan nan nan nan
nan nan nan nan nan nan nan nan nan nan nan nan nan nan nan nan nan nan nan nan nan nan nan nan nan 237 241 246 250 251 253 257 258 260 261 258 257 256 252 254 257 259 261 263 265 267 266 266 266 266 nan nan nan nan nan nan nan nan nan nan nan nan nan nan nan nan nan nan nan nan nan nan nan nan nan nan nan nan nan nan nan nan nan nan nan nan
nan nan nan nan nan nan nan nan nan nan nan nan nan nan nan nan nan nan nan nan nan nan nan 221 234 246 244 249 253 255 257 257 256 256 256 256 256 256 257 260 260 260 261 263 267 272 271 267 265 264 nan nan nan nan nan nan nan nan nan nan nan nan nan nan nan nan nan nan nan nan nan nan nan nan nan nan nan nan nan nan nan nan nan nan nan nan
nan nan nan nan 193 195 190 187 nan nan nan nan nan nan nan nan nan nan nan nan nan nan nan 228 239 242 246 252 258 264 266 266 263 259 255 254 253 252 256 259 261 264 266 266 267 271 270 265 263 264 nan nan nan nan nan nan nan nan nan nan nan nan nan nan nan nan nan nan nan nan nan nan nan nan nan nan nan nan nan nan nan nan nan nan nan nan
nan nan nan nan 197 196 192 nan nan nan nan nan nan nan nan nan nan nan nan nan nan nan nan 239 238 236 239 247 249 248 247 250 250 249 250 254 255 255 257 260 264 267 269 268 267 267 266 264 263 264 264 nan nan nan nan nan nan nan nan nan nan nan nan nan nan nan nan nan nan nan nan nan nan nan nan nan nan nan nan nan nan nan nan nan nan nan
nan nan nan 196 nan 191 189 189 nan nan nan nan nan nan nan nan nan nan nan nan nan nan 218 234 232 228 226 239 243 245 248 248 250 253 255 257 260 261 263 265 265 265 264 nan nan nan nan nan nan nan nan nan nan nan nan nan nan nan nan nan nan nan nan nan nan nan nan nan nan nan nan nan nan nan nan nan nan nan nan nan nan nan nan nan nan nan
nan nan nan nan nan 193 190 193 nan nan nan nan nan nan nan nan nan nan nan nan nan 225 230 227 227 225 230 243 246 249 253 257 258 257 257 260 265 265 266 265 263 260 258 258 259 nan nan nan nan nan nan nan nan nan nan nan nan nan nan nan nan nan nan nan nan nan nan nan nan nan nan nan nan nan nan nan nan nan nan nan nan nan nan nan nan nan
nan nan nan nan nan nan 193 194 nan nan nan nan nan nan nan nan 205 nan 206 nan nan 240 233 231 227 232 243 251 257 257 260 260 260 259 258 259 260 260 261 261 256 nan 252 256 nan nan nan nan nan nan nan nan nan nan nan nan nan nan nan nan nan nan nan nan nan nan nan nan nan nan nan nan nan nan nan nan nan nan nan nan nan nan nan nan nan nan
nan nan nan nan nan nan nan nan nan nan nan nan 203 nan nan 209 209 211 210 214 220 218 221 224 237 239 240 248 260 266 270 269 263 254 258 259 254 251 251 251 254 nan nan nan nan nan nan nan nan nan nan nan nan nan nan nan nan nan nan nan nan nan nan nan nan nan nan nan nan nan nan nan nan nan nan nan nan nan nan nan nan nan nan nan nan nan
nan nan nan nan nan nan nan nan nan nan nan 202 200 203 211 216 219 nan 214 213 211 214 224 231 236 245 250 249 252 251 250 250 253 258 250 252 260 261 261 261 266 nan nan nan nan nan nan nan nan nan nan nan nan nan nan nan nan nan nan nan nan nan nan nan nan nan nan nan nan nan nan nan nan nan nan nan nan nan nan nan nan nan nan nan nan nan
nan nan nan nan nan nan nan nan nan nan nan nan nan 204 206 206 209 214 210 209 210 216 226 232 238 243 245 247 247 246 248 247 243 236 242 248 256 265 nan nan nan nan nan nan nan nan nan nan nan nan nan 245 nan nan nan nan nan nan nan nan nan nan nan nan nan nan nan nan nan nan nan nan nan nan nan nan nan nan nan nan nan nan nan nan nan nan
nan 206 nan nan nan nan nan nan nan 209 nan nan 207 208 211 207 206 209 215 210 209 214 233 237 239 243 246 247 250 252 251 247 243 238 236 254 259 262 nan 265 264 nan nan nan nan nan nan nan nan nan 244 nan nan nan nan nan nan nan nan nan nan nan nan nan nan nan nan nan nan nan nan nan nan nan nan nan nan nan nan nan nan nan nan nan nan nan
nan 211 nan nan nan nan nan nan nan nan nan nan 207 209 206 205 208 209 215 213 215 214 231 243 247 250 251 252 254 255 254 251 249 245 246 256 260 259 nan nan nan nan 264 263 nan nan nan nan nan nan nan nan nan nan nan nan nan nan nan nan nan nan nan nan nan nan nan nan nan nan nan nan nan nan nan nan nan nan nan nan nan nan nan nan nan nan
nan nan nan nan nan nan nan nan nan nan nan nan 214 211 208 207 215 216 216 214 215 219 231 245 251 254 259 261 258 257 257 261 262 255 250 255 nan 261 nan nan nan nan nan nan nan nan nan nan nan nan nan nan nan nan nan nan nan nan nan nan nan nan nan nan nan nan nan nan nan nan nan nan nan nan nan nan nan nan nan nan nan nan nan nan nan nan
nan nan nan nan nan nan nan nan nan nan 211 nan 213 211 211 212 211 216 nan nan nan 226 232 246 257 259 255 254 257 258 264 269 274 265 256 257 nan 265 nan nan nan nan nan nan nan nan nan nan nan nan nan nan nan nan nan nan nan nan nan nan nan nan nan nan nan nan nan nan nan nan nan nan nan nan nan nan nan nan nan nan nan nan nan nan nan nan
nan nan nan nan nan nan nan nan nan nan nan nan 212 212 217 215 219 225 nan 216 235 237 235 241 251 256 258 257 251 249 229 236 253 261 261 260 263 nan nan nan nan nan nan nan nan nan nan nan nan nan nan nan nan nan nan nan nan nan nan nan nan nan nan nan nan nan nan nan nan nan nan nan nan nan nan nan nan nan nan nan nan nan nan nan nan nan
nan nan nan nan nan nan nan nan nan nan nan nan 212 221 214 nan nan nan nan nan 243 241 238 243 251 254 258 253 239 237 247 254 258 nan 264 nan 273 nan nan nan nan nan nan nan nan nan nan nan nan nan nan nan nan nan nan nan nan nan nan nan nan nan nan nan nan nan nan nan nan nan nan nan nan nan nan nan nan nan nan nan nan nan nan nan nan nan
nan nan nan nan nan nan nan nan nan nan nan nan 227 220 218 nan 219 nan nan nan nan 245 245 244 249 250 249 245 247 253 256 261 264 266 267 270 274 275 nan nan nan nan nan nan nan nan nan nan nan nan nan nan nan nan nan nan nan nan nan nan nan nan nan nan nan nan nan nan nan nan nan nan nan nan nan nan nan nan nan nan nan nan nan nan nan nan
nan nan nan nan nan nan nan nan nan nan nan 219 235 232 225 nan 229 nan nan nan nan 246 248 245 242 nan 248 254 253 256 261 262 nan nan nan 271 274 270 nan nan nan nan nan nan nan nan nan nan nan nan nan nan nan nan nan nan nan nan nan nan nan nan nan nan nan nan nan nan nan nan nan nan nan nan nan nan nan nan nan nan nan nan nan nan nan nan
nan nan nan nan nan nan nan nan nan nan nan 217 226 228 nan nan 230 nan nan nan nan nan nan nan nan 248 253 255 257 260 258 nan 268 nan 273 nan nan nan nan nan nan nan nan nan nan nan nan nan nan nan nan nan nan nan nan nan nan nan nan nan nan nan nan nan nan nan nan nan nan nan nan nan nan nan nan nan nan nan nan nan nan nan nan nan nan nan
nan nan nan nan nan nan nan nan nan nan nan 221 223 224 226 nan nan nan nan nan nan nan nan nan nan nan 259 260 259 nan 259 nan nan nan nan nan nan nan nan nan nan nan nan nan nan nan nan nan nan nan nan nan nan nan nan nan nan nan nan nan nan nan nan nan nan nan nan nan nan nan nan nan nan nan nan nan nan nan nan nan nan nan nan nan nan nan
nan nan nan 220 217 nan nan nan nan nan nan nan 228 nan nan nan 224 nan nan nan nan nan nan nan nan nan 263 257 259 259 258 262 262 nan nan nan nan nan nan nan nan nan nan nan nan nan nan nan nan nan nan nan nan nan nan nan nan nan nan nan nan nan nan nan nan nan nan nan nan nan nan nan nan nan nan nan nan nan nan nan nan nan nan nan nan nan
nan nan nan nan nan nan nan nan nan nan nan nan nan nan nan nan nan nan nan nan nan nan nan nan nan nan 249 246 251 nan 256 nan 260 nan nan nan nan nan nan nan nan nan nan nan nan nan nan nan nan nan nan nan nan nan nan nan nan nan nan nan nan nan nan nan nan nan nan nan nan nan nan nan nan nan nan nan nan nan nan nan nan nan nan nan nan nan
nan nan nan nan nan nan nan nan nan nan nan nan nan nan nan nan nan nan nan nan nan nan nan nan nan nan nan nan nan nan 252 nan nan nan nan nan nan nan nan nan nan nan nan nan nan nan nan nan nan nan nan nan nan nan nan nan nan nan nan nan nan nan nan nan nan nan nan nan nan nan nan nan nan nan nan nan nan nan nan nan nan nan nan nan nan nan
nan nan nan nan nan nan nan nan nan nan nan nan nan nan nan nan nan nan nan nan nan nan nan nan nan nan nan nan nan nan nan nan nan nan nan nan nan nan nan nan nan nan nan nan nan nan nan nan nan nan nan nan nan nan nan nan nan nan nan nan nan nan nan nan nan nan nan nan nan nan nan nan nan nan nan nan nan nan nan nan nan nan nan nan nan nan
nan nan nan nan nan nan nan nan nan nan nan nan nan nan nan nan nan nan nan nan nan nan nan nan nan nan nan nan nan nan nan nan nan nan nan nan nan nan nan nan nan nan nan nan nan nan nan nan nan nan nan nan nan nan nan nan nan nan nan nan nan nan nan nan nan nan nan nan nan nan nan nan nan nan nan nan nan nan nan nan nan nan nan nan nan nan